Location: Worth Mountain WMA
(34.9569°N, 81.4819°W)
Time: 22:55:35
(UTC-05:00)

ERS-1 Rocket - Pass Details

Date: 18 August 2017
Orbit: 753 x 758 km, 98.6° (Epoch: 22 November)

Event Time Altitude Azimuth Distance (km) Brightness Sun altitude
Exits shadow 22:06:10 54° 113° (ESE) 916 3.0 -22.2°
Maximum altitude 22:06:55 61° 74° (ENE) 858 3.0 -22.3°
Drops below altitude 10° 22:11:52 10° 355° (N) 2,284 6.0 -23.2°
Sets 22:14:11 0° 352° (N) 3,212 6.9 -23.5°
